Location: Mandela
(42.0333°N, 12.9167°E)
Time: 20:57:16
(UTC+00:00)

Daily predictions for brighter satellites

Satellite Brightness Start Highest point End
(mag) Time Altitude Azimuth Time Altitude Azimuth Time Altitude Azimuth
ATLAS 2AS CENTAUR R/B 3.1 18:09:32 10° SSW 18:17:16 62° ESE 18:24:58 10° NE
Cosmos 2322 Rocket 2.7 18:13:25 10° NNW 18:19:06 66° WSW 18:24:43 10° S
Cosmos 1606 Rocket 3.7 18:16:01 10° S 18:20:15 52° E 18:24:30 10° NNE
USA 32 4.4 18:15:45 10° S 18:20:56 75° W 18:26:11 10° N
Cosmos 1892 3.5 18:18:21 10° NNE 18:21:43 31° ENE 18:25:07 10° SE
Cosmos 2333 Rocket 3.0 18:17:39 10° N 18:23:00 37° ENE 18:28:16 10° SE
BREEZE-M DEB (TANK) 3.4 18:18:22 10° SW 18:25:16 35° SSE 18:27:58 10° E
Cosmos 1441 Rocket 3.8 18:25:06 10° NNW 18:29:00 63° W 18:32:55 10° S
Cosmos 1726 Rocket 3.7 18:26:30 10° S 18:30:46 53° E 18:35:02 10° NNE
Helios 1A Rocket 2.9 18:27:51 10° SSE 18:31:55 89° ENE 18:36:02 10° NNW
CZ-4C R/B 3.4 18:27:25 10° WSW 18:32:06 43° NW 18:37:42 10° NNE
Cosmos 2344 3.8 18:25:26 10° S 18:32:37 45° ESE 18:39:43 10° NE
Ariane Rocket 3.8 18:28:15 10° SE 18:32:43 33° ENE 18:37:13 10° N
Cosmos 1269 Rocket 4.2 18:28:46 10° SSW 18:34:05 81° WNW 18:39:25 10° NNE
Cosmos 2322 4.1 18:28:39 10° NNW 18:34:06 46° ENE 18:39:32 10° SE
Cosmos 1825 3.6 18:31:43 10° NNE 18:34:35 20° ENE 18:37:10 11° ESE
Cosmos 1302 Rocket 4.0 18:30:07 10° NNW 18:35:26 82° ENE 18:40:43 10° SSE
Cosmos 2228 3.1 18:32:43 10° S 18:37:04 84° W 18:41:25 10° N
SL-08 RB Rocket 4.3 18:32:36 10° S 18:37:12 61° W 18:41:48 10° NNW
Okean-O 4.1 18:33:53 10° SSW 18:38:01 39° W 18:42:12 10° NNW
MetOp-A 4.1 18:34:03 10° SSE 18:39:22 72° ENE 18:44:43 10° N
ARGOS 4.3 18:35:22 10° S 18:40:30 45° W 18:45:41 10° NNW
Cosmos 1408 3.0 18:39:52 10° N 18:43:16 40° ENE 18:46:38 10° SSE
RESURS DK-1 2.9 18:39:32 10° S 18:43:19 36° ESE 18:47:06 10° NE
CSL-04 Rocket 4.3 18:45:27 10° S 18:50:38 57° WSW 18:55:51 10° NNW
CENTAUR R/B 4.2 18:45:44 10° NW 18:53:40 48° WSW 19:02:05 10° S
Cosmos 2058 3.7 18:50:32 10° N 18:54:22 34° ENE 18:57:05 16° SE
CZ-2C R/B 4.1 18:51:08 10° N 18:55:57 40° WNW 19:00:49 10° SW
Cosmos 2058 Rocket 3.0 18:52:26 10° S 18:56:43 62° E 19:01:02 10° NNE
Cosmos 1992 Rocket 4.2 18:52:38 10° N 18:57:45 53° ENE 19:01:52 15° SE
Cosmos 2360 Rocket 2.9 18:54:32 10° NNW 19:00:03 53° WSW 19:05:29 10° S
ATLAS 3B R/B 3.2 18:53:43 10° NNW 19:00:31 49° NE 19:05:55 18° ESE
COSMOS 2487 2.7 18:57:27 10° SSW 19:00:50 68° WNW 19:04:14 10° NNE
USA 186 2.5 18:58:32 10° S 19:01:42 53° W 19:04:49 10° NNW
COSMOS 2428 3.0 18:58:00 10° NNW 19:03:39 54° ENE 19:07:47 18° SE
Cosmos 1953 Rocket 3.6 18:59:37 10° N 19:03:59 78° W 19:08:18 10° S
USA 215 4.2 18:58:18 11° E 19:04:02 38° NNE 19:09:57 10° NW
Cosmos 1092 Rocket 3.9 19:01:19 10° N 19:07:36 80° E 19:13:46 10° S
Cosmos 2333 4.3 19:02:54 10° NNW 19:08:42 82° WSW 19:14:01 12° SSE
Cosmos 1818 3.5 19:05:26 10° SSW 19:10:45 62° ESE 19:16:10 10° NE
FALCON 9 DEB 3.1 19:08:57 10° SW 19:12:22 87° NW 19:15:49 10° NE
Cosmos 909 Rocket 4.0 19:06:12 10° SSW 19:12:31 61° ESE 19:18:45 10° NE
Resurs 01 Rocket 2.2 19:12:45 23° SE 19:14:56 40° ENE 19:19:06 10° N
Cosmos 44 3.3 19:10:11 10° SSW 19:15:13 77° ESE 19:20:33 10° NE
Cosmos 2219 Rocket 2.2 19:11:22 10° NNW 19:17:06 82° ENE 19:21:14 19° SSE
Cosmos 1455 2.2 19:14:20 10° SSW 19:18:05 77° W 19:21:50 10° N
Resurs 1-3 3.5 19:23:13 19° SSE 19:26:22 90° E 19:30:46 10° NNW
IGS 5A 3.9 19:27:42 34° ESE 19:28:57 44° ENE 19:32:54 10° N
Cosmos 1633 4.1 19:27:42 10° NNE 19:30:05 21° ENE 19:30:05 21° ENE
Lacrosse 5 rocket 4.3 19:29:40 10° NW 19:31:34 13° NNW 19:33:29 10° NNE
Cosmos 1356 3.7 19:28:41 10° N 19:32:00 46° ENE 19:32:13 45° E
ATLAS 5 CENTAUR R/B 1.0 19:31:17 10° NW 19:33:09 56° SW 19:33:14 55° SW
Abrixas rocket 3.9 19:32:10 10° WSW 19:32:30 13° WSW 19:32:30 13° WSW
Cosmos 405 Rocket 2.8 19:32:26 10° N 19:36:25 60° ENE 19:37:21 45° SE
Cosmos 2292 Rocket 4.4 19:30:23 10° N 19:37:11 58° ENE 19:39:36 32° SE
Cosmos 1140 Rocket 4.0 19:38:38 33° ESE 19:38:50 34° E 19:43:24 10° NE
IRIDIUM 106 4.3 19:36:08 27° SSE 19:38:55 60° E 19:44:03 10° N
Cosmos 2279 Rocket 3.9 19:34:08 10° S 19:40:16 73° E 19:46:27 10° NNE
SPOT 5 4.4 19:40:17 18° ENE 19:40:33 18° ENE 19:43:39 10° NNE
Spot 2 Rocket 4.3 19:41:32 30° E 19:42:34 33° ENE 19:47:05 10° N
Cosmos 2237 Rocket 2.7 19:38:30 10° NNW 19:43:51 42° ENE 19:45:36 33° E
BREEZE-M DEB (TANK) 4.1 19:39:46 10° W 19:44:17 59° N 19:48:44 16° ENE
Exosat Rocket 3.7 19:38:15 10° NNW 19:44:36 84° WSW 19:47:11 31° SSE
SL-8 R/B 3.7 19:42:37 10° WNW 19:47:28 78° NNE 19:48:58 44° ESE
OBJECT-B 3.4 19:46:22 10° SW 19:48:44 19° W 19:51:07 10° NW
CZ-2C R/B 3.6 19:45:13 10° NNE 19:49:38 61° ESE 19:50:39 47° SSE
Terra 3.6 19:50:06 17° ENE 19:50:07 17° ENE 19:53:07 10° NNE
Cosmos 2026 Rocket 4.4 19:44:56 10° NNW 19:50:55 60° W 19:56:30 12° S
MetOp-B 4.1 19:52:09 40° SE 19:54:04 70° ENE 19:59:25 10° N
Meteor 2-14 Rocket 4.5 19:48:30 10° N 19:54:29 58° ENE 19:56:27 40° SE
Cosmos 2227 Rocket 2.5 19:57:04 41° ESE 19:57:04 41° ESE 20:02:20 10° NE
SPOT 1/Viking Rocket 3.6 19:58:13 47° ESE 19:59:26 60° ENE 20:04:36 10° N
Cosmos 389 Rocket 2.7 20:00:14 56° SW 20:00:43 65° W 20:04:15 10° N
Cosmos 2251 Rocket 4.4 19:55:47 10° SW 20:01:00 51° WNW 20:06:13 10° N
Cosmos 2297 Rocket 2.1 20:02:12 36° S 20:04:24 62° ESE 20:09:59 10° NNE
SPOT 3 Rocket 3.7 20:03:45 34° S 20:05:58 69° WSW 20:11:10 10° NNW
Cosmos 2219 3.1 20:05:52 48° SSE 20:07:02 59° ESE 20:12:34 10° NNE
Cosmos 2333 Rocket 3.6 20:02:04 10° NW 20:07:10 34° WSW 20:10:56 16° SSW
Cosmos 1190 Rocket 4.0 20:07:39 54° ESE 20:07:39 54° ESE 20:12:45 10° NNE
Cosmos 2266 Rocket 4.1 20:01:59 10° N 20:08:17 58° E 20:09:47 47° SE
ATLAS 2AS CENTAUR R/B 4.4 20:01:27 10° WSW 20:08:42 38° NW 20:15:50 10° NNE
BREEZE-M DEB (TANK) 3.9 20:07:03 10° NW 20:08:17 23° NNW 20:08:17 23° NNW
ARIANE 5 R/B 2.9 20:09:20 51° ENE 20:09:20 51° ENE 20:13:25 10° N
Cosmos 1825 4.2 20:06:53 10° NW 20:10:02 25° W 20:11:59 17° SW
Timation 2 Rocket 4.0 20:10:14 36° S 20:12:53 60° ESE 20:19:09 10° NNE
Meteor 2-21 Rocket 4.4 20:09:06 10° N 20:15:08 66° E 20:16:20 54° SE
Landsat 7 4.2 20:20:37 45° SSW 20:21:44 57° W 20:26:25 10° NNW
USA 245 3.7 20:24:37 61° NNW 20:24:37 61° NNW 20:27:35 10° NNW
Cosmos-2242 3.2 20:25:50 64° NNE 20:25:50 64° NNE 20:29:32 10° N
Meteor 2-16 Rocket 4.3 20:22:26 10° N 20:28:36 71° E 20:29:25 63° SE
Cosmos 1655 Rocket 4.1 20:29:51 10° N 20:36:08 74° W 20:37:46 51° SSW
SL-16 R/B 2.9 20:32:30 10° NNW 20:37:53 41° ENE 20:37:53 41° ENE
Cosmos 1980 3.8 20:33:29 10° NNW 20:39:08 67° WSW 20:39:45 62° SSW
Cosmos 2151 3.9 20:41:31 10° NNW 20:45:17 45° WNW 20:45:17 45° WNW
USA 215 3.1 20:45:38 66° SSE 20:46:40 83° SW 20:53:14 10° NW
Meteor 2-3 Rocket 3.8 20:42:11 10° NNW 20:47:55 71° W 20:48:26 67° SW
Meteor 1-27 4.1 20:47:48 80° SW 20:48:08 86° W 20:53:58 10° N
ATLAS 3B R/B 3.7 20:44:39 10° NW 20:51:08 39° WSW 20:53:12 33° SSW
Resurs 01 Rocket 3.8 20:50:18 17° WSW 20:51:34 19° W 20:54:48 10° NW
ERS-1 Rocket 3.2 20:54:40 69° NNW 20:54:40 69° NNW 20:59:05 10° NNW
Meteor 2-15 4.5 21:09:37 71° NNE 21:09:37 71° NNE 21:15:01 10° N
Lacrosse 5 rocket 4.3 21:10:39 10° NNW 21:12:25 12° N 21:14:12 10° NE
COSMOS 2455 3.2 21:18:16 57° NNE 21:18:16 57° NNE 21:22:59 10° NNE
SPOT 5 4.0 21:19:30 37° NW 21:19:30 37° NW 21:22:43 10° NNW
Terra 3.1 21:28:59 38° NW 21:28:59 38° NW 21:32:06 10° NNW
Cosmos 2237 Rocket 3.6 21:22:58 10° NW 21:27:26 28° W 21:27:26 28° W
SeaSat 1 4.4 21:23:00 10° NNE 21:24:38 21° NE 21:24:38 21° NE
Cosmos 2082 4.4 21:39:13 50° NNW 21:39:13 50° NNW 21:43:43 10° NNE
Cosmos 2263 Rocket 4.1 21:42:46 20° NE 21:42:46 20° NE 21:44:33 10° NE
Cosmos 2227 Rocket 3.8 21:38:45 22° W 21:41:11 31° NW 21:46:10 10° N
Cosmos 2297 Rocket 4.3 21:44:35 10° W 21:48:53 22° NW 21:53:14 10° N
NOSS 3-1 (A) 4.4 21:56:03 10° NNW 22:03:24 54° NE 22:04:04 53° ENE
SL-16 R/B 4.0 22:16:57 10° NW 22:19:46 23° WNW 22:19:46 23° WNW
NOSS 3-1 (C) 4.2 22:21:58 10° NW 22:28:43 71° WNW 22:28:43 71° WNW
Lacrosse 5 rocket 4.4 22:48:59 10° NNW 22:49:47 14° NNW 22:49:47 14° NNW
Cosmos 2263 Rocket 4.0 23:24:25 25° NW 23:24:25 25° NW 23:28:02 10° N
USA 281 3.7 23:33:03 55° N 23:33:03 55° N 23:38:03 10° NNW
Cosmos 1844 Rocket 4.1 23:39:31 33° NNE 23:39:31 33° NNE 23:42:31 10° NNE
SJ 16-02 4.3 23:56:01 12° ENE 23:56:01 12° ENE 23:56:25 10° NE
